Terminal Aerodrome Forecast
Issued by NWS Wilmington, OH

Current Version | Previous Version | Graphics & Text | Print | Product List | Glossary On
Versions: 1 2 3 4 5 6 7 8 9 10 11 12 13 14 15 16 17 18 19 20 21 22 23 24
000
FTUS41 KILN 200856 AAC
TAFDAY
TAF AMD
KDAY 200856Z 2009/2106 33006KT 5SM BR FEW008 FEW013
     FM201000 29003KT 5SM BR BKN025
     FM201300 31004KT P6SM SCT080
     FM201800 35006KT P6SM VCTS BKN040CB
     FM210100 05007KT P6SM VCSH BKN040=

USA.gov is the U.S. government's official web portal to all federal, state and local government web resources and services.